Weslaco, TX

4:56 PM CDT on April 27, 2017 (GMT -0500)
Weslaco

Weather History for KT65 - October, 2013

Change the Weather History Date:

Wednesday, October 2, 2013

  Actual Average (KMFE) Record (KMFE)
Temperature  
Mean Temperature 85 °F -  
Max Temperature 94 °F 87 °F 103 °F (1986)
Min Temperature 76 °F 68 °F 52 °F (1958)
Cooling Degree Days 20    
Growing Degree Days 35 (Base 50)    
Moisture  
Dew Point 71 °F    
Average Humidity 68    
Maximum Humidity 89    
Minimum Humidity 40    
Precipitation  
Precipitation 0.00 in - - ()
Sea Level Pressure  
Sea Level Pressure 29.87 in    
Wind  
Wind Speed 8 mph (SSE)    
Max Wind Speed 15 mph    
Max Gust Speed 18 mph    
Visibility 10 miles    
Events      
Averages and records for this station are not official NWS values.
T = Trace of Precipitation, MM = Missing Value Source: NWS Daily Summary

Daily Weather History Graph

Daily Weather History Graph

Search for Another Location

Airport or City:

Trip Planner

Search our weather history database for the weather conditions in past years. The results will help you decide how hot, cold, wet, or windy it might be!

Date:

Astronomy

Oct. 02, 2013 Rise Set
Actual Time 7:24 AM CDT 7:16 PM CDT
Civil Twilight 7:01 AM CDT 7:40 PM CDT
Nautical Twilight 6:35 AM CDT 8:06 PM CDT
Astronomical Twilight 6:08 AM CDT 8:33 PM CDT
Moon 5:10 AM CDT (10/2) 5:45 PM CDT (10/2)
Length of Visible Light 12h 38m
Length of Day
11h 52m
Waning Crescent, 6% of the Moon is Illuminated
Oct 2
Waning Crescent
Oct 4
New
Oct 11
First Quarter
Oct 18
Full
Oct 26
Last Quarter

Hourly Weather History & Observations

Time (CDT) Temp. Heat Index Dew Point Humidity Pressure Visibility Wind Dir Wind Speed Gust Speed Precip Events Conditions
12:15 AM 78.8 °F - 73.4 °F 83% 29.89 in 10.0 mi SE 8.1 mph - N/A   Clear
12:35 AM 78.8 °F - 73.4 °F 83% 29.89 in 10.0 mi SE 5.8 mph - N/A   Clear
12:55 AM 78.8 °F - 73.4 °F 83% 29.89 in 10.0 mi SE 5.8 mph - N/A   Scattered Clouds
1:15 AM 78.4 °F - 73.4 °F 84% 29.89 in 10.0 mi SE 5.8 mph - N/A   Scattered Clouds
1:35 AM 78.3 °F - 73.4 °F 85% 29.89 in 10.0 mi SE 5.8 mph - N/A   Mostly Cloudy
1:55 AM 78.1 °F - 73.4 °F 85% 29.89 in 10.0 mi SE 5.8 mph - N/A   Scattered Clouds
2:15 AM 77.9 °F - 73.0 °F 85% 29.89 in 10.0 mi SE 5.8 mph - N/A   Clear
2:35 AM 77.5 °F - 73.0 °F 86% 29.88 in 10.0 mi SE 5.8 mph - N/A   Clear
2:55 AM 77.7 °F - 73.4 °F 86% 29.88 in 10.0 mi SSE 6.9 mph - N/A   Mostly Cloudy
3:15 AM 77.4 °F - 73.2 °F 87% 29.87 in 10.0 mi SSE 5.8 mph - N/A   Mostly Cloudy
3:35 AM 77.2 °F - 73.0 °F 87% 29.86 in 10.0 mi SSE 6.9 mph - N/A   Scattered Clouds
3:55 AM 77.0 °F - 73.0 °F 88% 29.86 in 10.0 mi SSE 6.9 mph - N/A   Clear
4:15 AM 77.0 °F - 72.9 °F 87% 29.85 in 10.0 mi SSE 6.9 mph - N/A   Clear
4:35 AM 77.0 °F - 72.9 °F 87% 29.85 in 7.0 mi SSE 4.6 mph - N/A   Clear
4:55 AM 77.0 °F - 72.7 °F 86% 29.85 in 10.0 mi SE 4.6 mph - N/A   Clear
5:15 AM 76.8 °F - 72.7 °F 87% 29.86 in 10.0 mi SE 5.8 mph - N/A   Clear
5:35 AM 76.5 °F - 72.7 °F 88% 29.86 in 10.0 mi SE 4.6 mph - N/A   Clear
5:55 AM 76.1 °F - 72.5 °F 89% 29.86 in 10.0 mi SE 3.5 mph - N/A   Clear
6:15 AM 76.3 °F - 72.5 °F 88% 29.86 in 10.0 mi SE 4.6 mph - N/A   Clear
6:35 AM 76.1 °F - 72.5 °F 89% 29.86 in 10.0 mi SE 5.8 mph - N/A   Clear
6:55 AM 76.1 °F - 72.1 °F 87% 29.86 in 10.0 mi ESE 4.6 mph - N/A   Clear
7:15 AM 76.1 °F - 72.0 °F 87% 29.87 in 10.0 mi SE 4.6 mph - N/A   Clear
7:35 AM 76.1 °F - 72.1 °F 87% 29.88 in 10.0 mi SE 4.6 mph - N/A   Clear
7:55 AM 77.0 °F - 72.5 °F 86% 29.88 in 10.0 mi SE 3.5 mph - N/A   Clear
8:15 AM 77.9 °F - 72.7 °F 84% 29.89 in 7.0 mi SE 5.8 mph - N/A   Clear
8:35 AM 79.5 °F - 73.0 °F 80% 29.89 in 7.0 mi SSE 6.9 mph - N/A   Clear
8:55 AM 80.8 °F 85.6 °F 73.4 °F 78% 29.89 in 7.0 mi SSE 8.1 mph - N/A   Clear
9:15 AM 82.4 °F 88.2 °F 73.4 °F 74% 29.90 in 10.0 mi South 11.5 mph - N/A   Clear
9:35 AM 83.3 °F 89.3 °F 73.2 °F 71% 29.90 in 7.0 mi South 12.7 mph - N/A   Clear
9:55 AM 84.6 °F 91.0 °F 72.9 °F 68% 29.90 in 10.0 mi South 10.4 mph - N/A   Scattered Clouds
10:15 AM 86.0 °F 91.8 °F 71.8 °F 62% 29.90 in 10.0 mi South 11.5 mph 17.3 mph N/A   Scattered Clouds
10:35 AM 86.5 °F 92.5 °F 71.4 °F 61% 29.91 in 7.0 mi South 11.5 mph - N/A   Clear
10:55 AM 87.4 °F 92.3 °F 70.0 °F 56% 29.91 in 10.0 mi SSE 15.0 mph 18.4 mph N/A   Scattered Clouds
11:15 AM 88.0 °F 92.9 °F 69.8 °F 55% 29.91 in 10.0 mi South 11.5 mph - N/A   Clear
11:35 AM 88.9 °F 93.0 °F 68.7 °F 51% 29.91 in 10.0 mi SSE 12.7 mph 17.3 mph N/A   Clear
11:55 AM 90.3 °F 94.7 °F 68.7 °F 49% 29.91 in 10.0 mi South 11.5 mph 16.1 mph N/A   Clear
12:15 PM 90.3 °F 94.7 °F 68.9 °F 49% 29.90 in 10.0 mi SSE 10.4 mph - N/A   Scattered Clouds
12:35 PM 91.4 °F 95.8 °F 68.5 °F 47% 29.90 in 10.0 mi South 10.4 mph 16.1 mph N/A   Scattered Clouds
12:55 PM 91.6 °F 96.2 °F 68.7 °F 47% 29.89 in 10.0 mi South 9.2 mph 18.4 mph N/A   Scattered Clouds
1:15 PM 91.8 °F 95.5 °F 67.6 °F 45% 29.88 in 10.0 mi SSE 9.2 mph 17.3 mph N/A   Scattered Clouds
1:35 PM 93.2 °F 97.7 °F 68.0 °F 44% 29.87 in 10.0 mi SE 11.5 mph - N/A   Scattered Clouds
1:55 PM 91.9 °F 95.0 °F 66.7 °F 43% 29.86 in 10.0 mi SE 8.1 mph 18.4 mph N/A   Scattered Clouds
2:15 PM 93.2 °F 96.7 °F 67.3 °F 42% 29.86 in 10.0 mi SSE 9.2 mph - N/A   Scattered Clouds
2:35 PM 93.4 °F 98.1 °F 68.4 °F 44% 29.85 in 10.0 mi SE 11.5 mph 17.3 mph N/A   Scattered Clouds
2:55 PM 94.3 °F 97.7 °F 66.2 °F 40% 29.84 in 7.0 mi SSE 11.5 mph 17.3 mph N/A   Scattered Clouds
3:15 PM 93.4 °F 97.0 °F 67.1 °F 42% 29.83 in 10.0 mi SE 5.8 mph 16.1 mph N/A   Scattered Clouds
3:35 PM 94.1 °F 98.4 °F 67.8 °F 42% 29.83 in 7.0 mi SSE 13.8 mph 17.3 mph N/A   Scattered Clouds
3:55 PM 91.8 °F 96.0 °F 68.4 °F 46% 29.83 in 10.0 mi SSE 10.4 mph - N/A   Scattered Clouds
4:15 PM 92.1 °F 96.2 °F 68.0 °F 45% 29.83 in 10.0 mi SE 9.2 mph 16.1 mph N/A   Scattered Clouds
4:35 PM 93.2 °F 96.7 °F 66.9 °F 42% 29.83 in 10.0 mi SSE 12.7 mph 16.1 mph N/A   Scattered Clouds
4:55 PM 92.8 °F 95.6 °F 66.0 °F 41% 29.83 in 10.0 mi SE 10.4 mph - N/A   Clear
5:15 PM 92.5 °F 95.0 °F 65.3 °F 41% 29.83 in 10.0 mi SSE 10.4 mph - N/A   Clear
5:35 PM 92.1 °F 94.8 °F 66.2 °F 42% 29.83 in 10.0 mi SSE 12.7 mph 16.1 mph N/A   Clear
5:55 PM 91.2 °F 95.0 °F 67.8 °F 46% 29.83 in 10.0 mi SE 6.9 mph 16.1 mph N/A   Clear
6:15 PM 90.1 °F 94.9 °F 69.1 °F 50% 29.83 in 10.0 mi SE 9.2 mph 17.3 mph N/A   Scattered Clouds
6:35 PM 88.9 °F 93.8 °F 69.8 °F 53% 29.83 in 10.0 mi SSE 11.5 mph 17.3 mph N/A   Clear
6:55 PM 87.4 °F 92.3 °F 69.8 °F 56% 29.83 in 7.0 mi SSE 10.4 mph - N/A   Clear
7:15 PM 85.6 °F 90.1 °F 69.8 °F 59% 29.84 in 10.0 mi SE 10.4 mph - N/A   Clear
7:35 PM 84.4 °F 88.7 °F 70.0 °F 62% 29.85 in 10.0 mi SSE 9.2 mph - N/A   Clear
7:55 PM 83.5 °F 87.7 °F 70.3 °F 64% 29.86 in 10.0 mi SSE 9.2 mph 17.3 mph N/A   Clear
8:15 PM 82.6 °F 86.8 °F 70.5 °F 67% 29.86 in 10.0 mi SSE 8.1 mph - N/A   Clear
8:35 PM 82.0 °F 86.1 °F 70.7 °F 68% 29.87 in 10.0 mi SSE 11.5 mph 16.1 mph N/A   Clear
8:55 PM 81.5 °F 85.5 °F 70.7 °F 70% 29.88 in 10.0 mi SSE 10.4 mph - N/A   Clear
9:15 PM 81.0 °F 84.7 °F 70.7 °F 71% 29.89 in 10.0 mi SSE 9.2 mph - N/A   Clear
9:35 PM 80.2 °F 83.7 °F 70.7 °F 73% 29.90 in 10.0 mi SSE 8.1 mph - N/A   Clear
9:55 PM 79.7 °F - 71.1 °F 75% 29.90 in 10.0 mi SSE 6.9 mph - N/A   Clear
10:15 PM 79.2 °F - 71.2 °F 77% 29.91 in 10.0 mi SE 5.8 mph - N/A   Clear
10:35 PM 78.8 °F - 71.1 °F 77% 29.91 in 10.0 mi SE 5.8 mph - N/A   Clear
10:55 PM 78.3 °F - 71.2 °F 79% 29.91 in 10.0 mi SSE 5.8 mph - N/A   Clear
11:15 PM 78.1 °F - 71.1 °F 79% 29.91 in 10.0 mi SSE 5.8 mph - N/A   Clear
11:35 PM 77.9 °F - 71.2 °F 80% 29.92 in 10.0 mi SSE 5.8 mph - N/A   Clear
11:55 PM 77.9 °F - 71.2 °F 80% 29.91 in 10.0 mi SSE 6.9 mph - N/A   Clear